Change the Weather History Date:

Tuesday, March 18, 2014

  Actual Average Record
Temperature  
Mean Temperature 28 °F -  
Max Temperature 34 °F 35 °F 75 °F (2012)
Min Temperature 21 °F 18 °F -12 °F (1967)
Degree Days  
Heating Degree Days 38    
Moisture  
Dew Point 23 °F    
Average Humidity 80    
Maximum Humidity 94    
Minimum Humidity 67    
Precipitation  
Precipitation 0.00 in - - ()
Sea Level Pressure  
Sea Level Pressure 29.75 in    
Wind  
Wind Speed 8 mph (East)    
Max Wind Speed 14 mph    
Max Gust Speed 20 mph    
Visibility 8 miles    
Events Snow    
Averages and records for this station are not official NWS values.
T = Trace of Precipitation, MM = Missing Value Source: NWS Daily Summary

Daily Weather History Graph

Daily Weather History Graph

Search for Another Location

Airport or City:

Trip Planner

Search our weather history database for the weather conditions in past years. The results will help you decide how hot, cold, wet, or windy it might be!

Date:

Astronomy

Mar. 18, 2014 Rise Set
Actual Time 7:08 AM CDT 7:11 PM CDT
Civil Twilight 6:38 AM CDT 7:40 PM CDT
Nautical Twilight 6:04 AM CDT 8:14 PM CDT
Astronomical Twilight 5:29 AM CDT 8:50 PM CDT
Moon 9:36 PM CDT (3/18) 7:51 AM CDT (3/18)
Length of Visible Light 13h 01m
Length of Day
12h 03m
Waning Gibbous, 96% of the Moon is Illuminated
Mar 18
Waning Gibbous
Mar 23
Last Quarter
Mar 30
New
Apr 7
First Quarter
Apr 15
Full

Hourly Weather History & Observations

Time (CDT) Temp. Windchill Dew Point Humidity Pressure Visibility Wind Dir Wind Speed Gust Speed Precip Events Conditions
12:15 AM 23.0 °F 14.7 °F 15.8 °F 74% 29.72 in 10.0 mi ESE 6.9 mph - N/A   Overcast
12:35 AM 23.0 °F 14.7 °F 15.8 °F 74% 29.72 in 10.0 mi ESE 6.9 mph - N/A   Overcast
12:55 AM 23.0 °F 17.0 °F 16.2 °F 75% 29.73 in 10.0 mi ESE 4.6 mph - N/A   Overcast
1:15 AM 23.0 °F 17.0 °F 16.3 °F 76% 29.73 in 10.0 mi ESE 4.6 mph - N/A   Mostly Cloudy
1:35 AM 23.0 °F 14.7 °F 16.7 °F 77% 29.74 in 10.0 mi ESE 6.9 mph - N/A   Mostly Cloudy
1:55 AM 23.2 °F 15.0 °F 17.1 °F 77% 29.73 in 10.0 mi ESE 6.9 mph - N/A   Overcast
2:15 AM 23.4 °F 15.2 °F 17.4 °F 78% 29.74 in 10.0 mi ESE 6.9 mph - N/A   Overcast
2:35 AM 23.4 °F 16.2 °F 17.6 °F 79% 29.74 in 10.0 mi East 5.8 mph - N/A   Overcast
2:55 AM 23.0 °F 15.8 °F 17.6 °F 80% 29.73 in 10.0 mi ESE 5.8 mph - N/A   Scattered Clouds
3:15 AM 22.6 °F 16.5 °F 17.6 °F 81% 29.73 in 10.0 mi ESE 4.6 mph - N/A   Clear
3:35 AM 22.3 °F 14.9 °F 17.6 °F 82% 29.72 in 10.0 mi East 5.8 mph - N/A   Scattered Clouds
3:55 AM 22.1 °F 14.7 °F 17.6 °F 83% 29.73 in 10.0 mi East 5.8 mph - N/A   Scattered Clouds
4:15 AM 22.1 °F 13.7 °F 17.8 °F 83% 29.73 in 10.0 mi East 6.9 mph - N/A   Clear
4:35 AM 22.1 °F 13.7 °F 17.8 °F 83% 29.72 in 10.0 mi East 6.9 mph - N/A   Clear
4:55 AM 21.6 °F 14.0 °F 17.6 °F 85% 29.72 in 10.0 mi East 5.8 mph - N/A   Clear
5:15 AM 21.7 °F 14.3 °F 17.8 °F 85% 29.72 in 10.0 mi East 5.8 mph - N/A   Clear
5:35 AM 21.6 °F 13.0 °F 17.6 °F 85% 29.73 in 10.0 mi East 6.9 mph - N/A   Clear
5:55 AM 21.2 °F 12.6 °F 17.6 °F 86% 29.73 in 10.0 mi East 6.9 mph - N/A   Clear
6:15 AM 21.7 °F 12.3 °F 18.3 °F 87% 29.73 in 10.0 mi East 8.1 mph - N/A   Clear
6:35 AM 21.2 °F 11.7 °F 18.0 °F 87% 29.73 in 7.0 mi East 8.1 mph - N/A   Clear
6:55 AM 21.2 °F 12.6 °F 18.1 °F 88% 29.73 in 7.0 mi East 6.9 mph - N/A   Clear
7:15 AM 21.6 °F 12.1 °F 18.5 °F 88% 29.73 in 7.0 mi East 8.1 mph - N/A   Clear
7:35 AM 21.7 °F 12.3 °F 18.7 °F 88% 29.74 in 7.0 mi East 8.1 mph - N/A   Clear
7:55 AM 22.5 °F 13.2 °F 19.0 °F 87% 29.74 in 7.0 mi East 8.1 mph - N/A   Clear
8:15 AM 22.6 °F 15.3 °F 19.4 °F 87% 29.74 in 7.0 mi East 5.8 mph - N/A   Clear
8:35 AM 23.5 °F 13.7 °F 19.9 °F 86% 29.75 in 7.0 mi East 9.2 mph - N/A   Clear
8:55 AM 24.3 °F 16.3 °F 20.1 °F 84% 29.76 in 7.0 mi East 6.9 mph - N/A   Clear
9:15 AM 24.8 °F 16.9 °F 20.3 °F 83% 29.78 in 7.0 mi East 6.9 mph - N/A   Clear
9:35 AM 25.7 °F 17.1 °F 20.8 °F 82% 29.77 in 7.0 mi East 8.1 mph - N/A   Clear
9:55 AM 26.4 °F 17.3 °F 21.2 °F 81% 29.77 in 7.0 mi East 9.2 mph - N/A   Clear
10:15 AM 27.7 °F 18.8 °F 21.7 °F 78% 29.77 in 7.0 mi East 9.2 mph - N/A   Scattered Clouds
10:35 AM 28.8 °F 21.7 °F 21.9 °F 76% 29.78 in 7.0 mi East 6.9 mph - N/A   Mostly Cloudy
10:55 AM 29.8 °F 22.2 °F 22.3 °F 73% 29.78 in 7.0 mi East 8.1 mph - N/A   Scattered Clouds
11:15 AM 30.6 °F 22.4 °F 22.5 °F 72% 29.78 in 10.0 mi East 9.2 mph - N/A   Clear
11:35 AM 30.9 °F 23.5 °F 22.6 °F 71% 29.78 in 10.0 mi East 8.1 mph - N/A   Clear
11:55 AM 31.6 °F 23.7 °F 23.0 °F 70% 29.77 in 10.0 mi East 9.2 mph 16.1 mph N/A   Clear
12:15 PM 32.0 °F 24.8 °F 23.2 °F 70% 29.77 in 10.0 mi East 8.1 mph - N/A   Clear
12:35 PM 32.9 °F 24.7 °F 23.5 °F 68% 29.77 in 10.0 mi ESE 10.4 mph 18.4 mph N/A   Clear
12:55 PM 33.4 °F 25.9 °F 23.9 °F 68% 29.77 in 7.0 mi East 9.2 mph 17.3 mph N/A   Clear
1:15 PM 33.4 °F 25.4 °F 23.9 °F 68% 29.76 in 10.0 mi ESE 10.4 mph 16.1 mph N/A   Mostly Cloudy
1:35 PM 33.8 °F 25.3 °F 24.3 °F 68% 29.75 in 10.0 mi ESE 11.5 mph - N/A   Overcast
1:55 PM 34.7 °F 25.5 °F 24.6 °F 67% 29.75 in 10.0 mi ESE 13.8 mph 18.4 mph N/A   Overcast
2:15 PM 34.5 °F 26.2 °F 24.8 °F 68% 29.75 in 10.0 mi ESE 11.5 mph 18.4 mph N/A   Overcast
2:35 PM 34.7 °F 25.9 °F 24.8 °F 67% 29.75 in 10.0 mi ESE 12.7 mph 18.4 mph N/A   Overcast
2:55 PM 34.3 °F 27.0 °F 25.2 °F 69% 29.74 in 10.0 mi ESE 9.2 mph 19.6 mph N/A   Overcast
3:15 PM 34.7 °F 26.9 °F 25.7 °F 70% 29.75 in 10.0 mi East 10.4 mph 16.1 mph N/A   Mostly Cloudy
3:35 PM 34.3 °F 26.5 °F 25.9 °F 71% 29.75 in 10.0 mi East 10.4 mph 17.3 mph N/A   Mostly Cloudy
3:55 PM 34.2 °F 26.8 °F 26.2 °F 73% 29.75 in 7.0 mi East 9.2 mph - N/A   Overcast
4:15 PM 34.2 °F 25.7 °F 26.6 °F 74% 29.75 in 7.0 mi ESE 11.5 mph - N/A   Mostly Cloudy
4:35 PM 34.2 °F 28.2 °F 27.0 °F 75% 29.74 in 7.0 mi East 6.9 mph - N/A   Scattered Clouds
4:55 PM 34.0 °F 26.0 °F 27.1 °F 76% 29.74 in 7.0 mi East 10.4 mph 16.1 mph N/A   Scattered Clouds
5:15 PM 33.8 °F 25.8 °F 27.1 °F 77% 29.73 in 7.0 mi East 10.4 mph - N/A   Scattered Clouds
5:35 PM 33.4 °F 24.8 °F 27.1 °F 78% 29.72 in 7.0 mi East 11.5 mph 16.1 mph N/A   Scattered Clouds
5:55 PM 32.9 °F 23.7 °F 27.5 °F 81% 29.72 in 7.0 mi East 12.7 mph 16.1 mph N/A   Mostly Cloudy
6:15 PM 32.9 °F 25.3 °F 27.5 °F 81% 29.73 in 7.0 mi ENE 9.2 mph - N/A   Overcast
6:35 PM 32.4 °F 24.6 °F 27.7 °F 83% 29.74 in 7.0 mi ENE 9.2 mph - N/A   Overcast
6:55 PM 32.2 °F 25.8 °F 27.9 °F 84% 29.75 in 7.0 mi East 6.9 mph - N/A   Overcast
7:15 PM 32.5 °F 27.1 °F 27.5 °F 82% 29.77 in 7.0 mi East 5.8 mph - N/A   Overcast
7:35 PM 32.4 °F 26.0 °F 27.5 °F 82% 29.78 in 7.0 mi ESE 6.9 mph - N/A   Overcast
7:55 PM 32.0 °F 23.0 °F 27.9 °F 85% 29.78 in 4.0 mi East 11.5 mph 16.1 mph N/A Snow Light Snow
8:15 PM 31.6 °F 22.6 °F 28.8 °F 89% 29.78 in 2.0 mi East 11.5 mph - N/A Snow Light Snow
8:35 PM 31.1 °F 22.4 °F 29.3 °F 93% 29.77 in 2.0 mi NE 10.4 mph - N/A Snow Light Snow
8:55 PM 31.1 °F 23.7 °F 29.3 °F 93% 29.78 in 3.0 mi ENE 8.1 mph - N/A Snow Light Snow
9:15 PM 31.1 °F 23.7 °F 29.1 °F 92% 29.79 in 5.0 mi East 8.1 mph - N/A   Overcast
9:35 PM 31.3 °F 23.9 °F 28.9 °F 91% 29.79 in 5.0 mi East 8.1 mph - N/A   Overcast
9:55 PM 31.6 °F 24.4 °F 29.1 °F 90% 29.79 in 5.0 mi East 8.1 mph - N/A   Overcast
10:15 PM 31.6 °F 23.1 °F 29.3 °F 91% 29.79 in 5.0 mi East 10.4 mph - N/A Snow Light Snow
10:35 PM 31.1 °F 23.7 °F 29.5 °F 94% 29.78 in 1.8 mi East 8.1 mph - N/A Snow Light Snow
10:55 PM 31.1 °F 23.1 °F 29.3 °F 93% 29.78 in 4.0 mi East 9.2 mph - N/A Snow Light Snow
11:15 PM 31.1 °F 23.1 °F 28.9 °F 92% 29.77 in 5.0 mi ENE 9.2 mph - N/A   Overcast
11:35 PM 31.1 °F 23.1 °F 28.4 °F 90% 29.76 in 7.0 mi ENE 9.2 mph - N/A   Overcast
11:55 PM 31.1 °F 22.4 °F 28.2 °F 89% 29.75 in 7.0 mi ENE 10.4 mph - N/A   Overcast